Location: Newark
(34.9850°N, 80.4472°W)
Time: 04:58:40
(UTC+00:00)

LightSail 2 - Visible Passes

Search period start: 25 January 2020 00:00
Search period end: 04 February 2020 00:00
Orbit: 704 x 719 km, 24.0° (Epoch: 24 January)

Date Brightness Start Highest point End Pass type
(mag) Time Alt. Az. Time Alt. Az. Time Alt. Az.
25 Jan 7.1 00:53:13 10° SW 00:56:42 18° SSW 00:57:34 17° S visible
25 Jan 7.2 23:54:37 10° WSW 23:58:24 21° S 00:02:11 10° SE visible
27 Jan 7.6 00:42:22 10° SW 00:44:56 14° SSW 00:47:22 10° SSE visible
27 Jan 7.5 23:43:26 10° SW 23:46:38 17° SSW 23:49:51 10° SSE visible
29 Jan 7.8 23:32:50 10° SW 23:34:48 12° SSW 23:36:45 10° S visible
